INTELSAT 33E DEB, 64402

Orbit data source: Space-Track

INTELSAT 33E DEB, 64402 is space debris in GEO originally from a launch on Wed, 24 Aug 2016 UTC launched from the French Guiana (FRGUI). Debris objects in space refer to the collection of defunct objects orbiting the Earth. Examples of debris include non-operational satellites, rocket bodies, and fragments generated from explosions, collisions, or faulty payload assembly.

Loading next visibility...
Identifier
64402, 2016-053AG
Orbit
GEO
Country
Flag of USUS / ITSO
Related business
Manufacturer
Boeing/ES
Mission
Spacecraft
Bus & Motor
Unknown
Mass
Unknown
Launch date (UTC)
2016-08-24 (10 years ago)
Launch vehicle
Unknown
Launch site
French Guiana (FRGUI)
Object type
Payload
Rocket body
Debris
Shape & HBR
Unknown shape, 1.1 m
Radar Cross Section
RCS unknown

Expand to show TLE details & history
Last TLE update: 19 hours ago

TLE from 19 hours ago
0 INTELSAT 33E DEB
1 64402U 16053AG  26165.88402919 -.00000005  00000-0  00000+0 0  9997
2 64402   1.5064  75.5583 0126212 101.0496 259.2982  0.98355070  5843
Epoch: 2026-06-14T21:13Z
TLE epoch observation values (Epoch: 2026-06-14T21:13:00.122Z)
Latitude
Longitude
-146.93031°
Altitude
36,438.604 km
Speed
3.047 km/s
True Right ascension
04h 57m 59s
True Declination
0° 00' 00"
Sunlit
Object was in daylight at epoch
Visualization orbit readout
Latitude
Unknown
Longitude
Unknown
Altitude
Unknown
Speed
Unknown
Apparent Right ascension
Unknown
Apparent Declination
Unknown
Sunlit
N/A
Visualization observer readout
Local Sidereal Time
02:33:38
Azimuth
Unknown
Elevation
Unknown
Doppler factor
Unknown
Orbital elements
Apogee altitude
36,872.758 km
Perigee altitude
35,794.609 km
Semi-major axis
42,711.821 km
Eccentricity
0.01262
Inclination
1.5064°
RAAN
75.5583°
Arg. of periapsis
101.0496°
True anomaly
257.88137°
Mean anomaly
259.2982°
Eccentric anomaly
258.58935°
Mean motion
0.24588 °/min
Orbital period
1,464.14 mins
BSTAR
0
Loading maneuver chart data...
Computing Atmospheric mass density...
Loading historical data...
Loading historical data...
Loading historical data...
Loading historical data...
Loading historical data...
Loading historical data...
Loading historical data...

Documentation

Showing up to 5 results
|